Location: Namasale
(1.5000°N, 32.6167°E)
Time: 17:11:37
(UTC+00:00)

Courier 1B - Pass Details

Date: 24 April 2021
Orbit: 962 x 1209 km, 28.3° (Epoch: 18 May)

Event Time Altitude Azimuth Distance (km) Brightness Sun altitude
Rises 15:50:11 0° 306° (NW) 3,632 12.0 -0.3°
Reaches altitude 10° 15:52:49 10° 309° (NW) 2,698 11.1 -0.9°
Maximum altitude 15:59:16 65° 30° (NNE) 1,083 7.8 -2.5°
Drops below altitude 10° 16:06:02 10° 111° (ESE) 2,828 9.3 -4.1°
Enters shadow 16:07:31 - 113° (ESE) 3,346 9.6 -4.5°
Sets 16:08:51 0° 114° (ESE) 3,819 - -4.8°
